Find Starlink 3523

NORAD ID: 51729 Int'l Des: 2022-016 Owner: SPXS Country: US Constellation: starlink operational
LEOCIRCULAR

現在のビュー

3D地球を読み込み中...

About Starlink 3523

Starlink 3523 (NORAD 51729) is a starlink constellation satellite (v1.5) launched Feb 21, 2022 by SPXS of US. It operates in LEO, CIRCULAR orbit with a mass of 297.00 kg.

次回通過

Passes for default location (London). Set your location on the main map for personalized predictions.

高度履歴

Loading altitude history...

軌道要素

1 51729U 22016R 26263.97367478 .00000056 00000-0 12791-4 0 9990
2 51729 53.1604 147.1933 0001283 86.3688 273.7462 15.34391055253250
Epoch: Sep 20, 2026 • Age: 14 hours

現在のステータス

高度 462.6 km
遠地点 / 近地点 N/A
速度 7.64 km/s
衛星直下点 13.24°N, 48.55°W
打ち上げ日 Feb 21, 2022
運用期間 4.5 years
タイプ internet

技術仕様

分類 Payload
質量 297.00 kg
乾燥質量 275.00 kg
長さ 0.20 m
スパン 9.00 m
形状 ? Box + pan
製造者 SPXS
バスタイプ Starlink
フェーズステータス In Orbit
所有者/国 SPXS/US

Most Searched